| time (UTC) | temp F | wind direction | speed knots | gust knots | rain 1hr in | rain 24hr in | rain mn in | humidity % | barometer mb |
| 20260506100039 | 57 | 316 | 0.0 | 0.0 | 0.00 | 0.00 | 0.00 | 91 | 1014.6 |
| 20260506094546 | 57 | 316 | 0.0 | 0.0 | 0.00 | 0.00 | 0.00 | 91 | 1014.6 |
| 20260506093035 | 57 | 316 | 0.0 | 0.0 | 0.00 | 0.00 | 0.00 | 90 | 1014.9 |
| 20260506091535 | 57 | 316 | 0.0 | 0.0 | 0.00 | 0.00 | 0.00 | 89 | 1015.0 |
| 20260506090036 | 57 | 316 | 0.0 | 0.0 | 0.00 | 0.00 | 0.00 | 89 | 1015.0 |
| 20260506084533 | 57 | 316 | 0.0 | 0.0 | 0.00 | 0.00 | 0.00 | 88 | 1015.0 |
| 20260506083030 | 58 | 316 | 0.0 | 0.0 | 0.00 | 0.00 | 0.00 | 88 | 1015.2 |
| 20260506081529 | 58 | 316 | 0.0 | 0.0 | 0.00 | 0.00 | 0.00 | 88 | 1015.3 |
| 20260506080129 | 58 | 316 | 0.0 | 0.0 | 0.00 | 0.00 | 0.00 | 87 | 1015.4 |
| 20260506073025 | 59 | 316 | 0.0 | 0.0 | 0.00 | 0.00 | 0.00 | 86 | 1015.4 |
| 20260506071524 | 59 | 316 | 0.0 | 0.0 | 0.00 | 0.00 | 0.00 | 85 | 1015.3 |
| 20260506061517 | 61 | 316 | 0.0 | 0.0 | 0.00 | 0.00 | 0.00 | 82 | 1015.4 |
| 20260506044509 | 63 | 316 | 0.0 | 0.0 | 0.00 | 0.00 | 0.00 | 78 | 1015.8 |
| 20260506043002 | 63 | 316 | 0.0 | 0.0 | 0.00 | 0.00 | 0.00 | 77 | 1015.8 |
| 20260506041608 | 64 | 316 | 0.0 | 0.0 | 0.00 | 0.00 | 0.00 | 75 | 1015.9 |
| 20260506040058 | 64 | 316 | 0.0 | 0.9 | 0.00 | 0.00 | 0.00 | 75 | 1015.9 |
| 20260506034600 | 65 | 316 | 0.0 | 0.9 | 0.00 | 0.00 | 0.00 | 73 | 1016.0 |
| 20260506033111 | 65 | 316 | 0.0 | 1.7 | 0.00 | 0.00 | 0.00 | 72 | 1016.1 |
| 20260506031605 | 65 | 311 | 0.0 | 1.7 | 0.00 | 0.00 | 0.00 | 72 | 1016.0 |
| 20260506030056 | 65 | 311 | 0.0 | 0.9 | 0.00 | 0.00 | 0.00 | 71 | 1015.8 |
| 20260506024556 | 66 | 311 | 0.0 | 0.9 | 0.00 | 0.00 | 0.00 | 71 | 1015.7 |
| 20260506023054 | 66 | 311 | 0.0 | 0.9 | 0.00 | 0.00 | 0.00 | 71 | 1015.6 |
| 20260506021557 | 66 | 311 | 0.0 | 0.9 | 0.00 | 0.00 | 0.00 | 72 | 1015.7 |
| 20260506020054 | 67 | 311 | 0.0 | 0.0 | 0.00 | 0.00 | 0.00 | 72 | 1015.7 |
| 20260506014557 | 67 | 311 | 0.0 | 0.9 | 0.00 | 0.00 | 0.00 | 71 | 1015.6 |
| 20260506013053 | 67 | 311 | 0.0 | 1.7 | 0.00 | 0.00 | 0.00 | 69 | 1015.3 |
| 20260506011553 | 67 | 311 | 0.0 | 0.0 | 0.00 | 0.00 | 0.00 | 66 | 1015.1 |
| 20260506010052 | 68 | 311 | 0.0 | 1.7 | 0.00 | 0.00 | 0.00 | 64 | 1014.9 |
| 20260506004556 | 69 | 311 | 0.0 | 0.0 | 0.00 | 0.00 | 0.00 | 61 | 1014.6 |
| 20260506003052 | 70 | 311 | 0.0 | 0.0 | 0.00 | 0.00 | 0.00 | 61 | 1014.1 |
| 20260506001609 | 70 | 311 | 0.0 | 0.0 | 0.00 | 0.00 | 0.00 | 63 | 1014.1 |
| 20260506000050 | 71 | 311 | 0.0 | 0.0 | 0.00 | 0.00 | 0.00 | 60 | 1014.2 |
| 20260505234552 | 73 | 311 | 0.0 | 0.9 | 0.00 | 0.00 | 0.00 | 57 | 1014.4 |
| 20260505233055 | 75 | 311 | 0.0 | 1.7 | 0.00 | 0.00 | 0.00 | 52 | 1014.3 |
| 20260505231554 | 77 | 311 | 0.0 | 2.6 | 0.00 | 0.00 | 0.00 | 46 | 1014.3 |
| 20260505230051 | 78 | 255 | 0.0 | 2.6 | 0.00 | 0.00 | 0.00 | 44 | 1014.3 |
| 20260505224549 | 79 | 275 | 0.0 | 7.0 | 0.00 | 0.00 | 0.00 | 44 | 1014.6 |
| 20260505223055 | 81 | 242 | 2.6 | 7.0 | 0.00 | 0.00 | 0.00 | 40 | 1014.3 |
| 20260505221551 | 81 | 261 | 0.9 | 3.5 | 0.00 | 0.00 | 0.00 | 43 | 1014.2 |
| 20260505220047 | 82 | 198 | 0.9 | 2.6 | 0.00 | 0.00 | 0.00 | 40 | 1014.3 |
| 20260505214558 | 82 | 260 | 0.9 | 5.2 | 0.00 | 0.00 | 0.00 | 41 | 1014.1 |
| 20260505213054 | 81 | 262 | 2.6 | 9.6 | 0.00 | 0.00 | 0.00 | 42 | 1014.4 |
| 20260505211542 | 82 | 205 | 0.9 | 6.1 | 0.00 | 0.00 | 0.00 | 41 | 1014.6 |
| 20260505210040 | 80 | 259 | 0.9 | 4.3 | 0.00 | 0.00 | 0.00 | 42 | 1014.7 |
| 20260505204540 | 81 | 118 | 2.6 | 8.7 | 0.00 | 0.00 | 0.00 | 40 | 1014.8 |
| 20260505203045 | 83 | 246 | 1.7 | 5.2 | 0.00 | 0.00 | 0.00 | 40 | 1014.7 |
| 20260505201548 | 82 | 156 | 3.5 | 11.3 | 0.00 | 0.00 | 0.00 | 40 | 1015.0 |
| 20260505200035 | 82 | 28 | 0.9 | 4.3 | 0.00 | 0.00 | 0.00 | 41 | 1015.0 |
| 20260505194536 | 80 | 257 | 0.9 | 5.2 | 0.00 | 0.00 | 0.00 | 42 | 1015.2 |
| 20260505193044 | 81 | 257 | 1.7 | 5.2 | 0.00 | 0.00 | 0.00 | 45 | 1015.5 |
| 20260505191534 | 80 | 252 | 1.7 | 5.2 | 0.00 | 0.00 | 0.00 | 40 | 1015.5 |
| 20260505190038 | 80 | 262 | 0.9 | 7.0 | 0.00 | 0.00 | 0.00 | 42 | 1015.7 |
| 20260505184527 | 81 | 268 | 3.5 | 11.3 | 0.00 | 0.00 | 0.00 | 39 | 1016.4 |
| 20260505183043 | 80 | 314 | 0.9 | 4.3 | 0.00 | 0.00 | 0.00 | 43 | 1016.6 |
| 20260505181526 | 81 | 146 | 2.6 | 11.3 | 0.00 | 0.00 | 0.00 | 45 | 1016.9 |
| 20260505180034 | 81 | 204 | 0.9 | 6.1 | 0.00 | 0.00 | 0.00 | 42 | 1016.9 |
| 20260505174531 | 80 | 255 | 0.9 | 3.5 | 0.00 | 0.00 | 0.00 | 45 | 1016.7 |
| 20260505173034 | 80 | 75 | 2.6 | 8.7 | 0.00 | 0.00 | 0.00 | 41 | 1016.6 |
| 20260505171528 | 79 | 66 | 0.9 | 9.6 | 0.00 | 0.00 | 0.00 | 43 | 1016.9 |
| 20260505170018 | 79 | 215 | 0.9 | 6.1 | 0.00 | 0.00 | 0.00 | 44 | 1017.2 |
| 20260505164530 | 78 | 219 | 2.6 | 7.0 | 0.00 | 0.00 | 0.00 | 46 | 1017.4 |
| 20260505163022 | 79 | 209 | 1.7 | 7.0 | 0.00 | 0.00 | 0.00 | 47 | 1017.5 |
| 20260505161513 | 78 | 303 | 0.0 | 7.0 | 0.00 | 0.00 | 0.00 | 53 | 1017.4 |
| 20260505153005 | 75 | 235 | 0.0 | 6.1 | 0.00 | 0.00 | 0.00 | 61 | 1017.9 |
| 20260505151559 | 74 | 220 | 1.7 | 5.2 | 0.00 | 0.00 | 0.00 | 61 | 1017.9 |
| 20260505150114 | 73 | 282 | 1.7 | 4.3 | 0.00 | 0.00 | 0.00 | 63 | 1017.8 |
| 20260505124525 | 56 | 227 | 1.7 | 3.5 | 0.00 | 0.00 | 0.00 | 96 | 1017.9 |
| 20260505123039 | 53 | 319 | 0.0 | 1.7 | 0.00 | 0.00 | 0.00 | 95 | 1017.7 |
| 20260505121526 | 50 | 319 | 0.0 | 0.0 | 0.00 | 0.00 | 0.00 | 94 | 1017.7 |
| 20260505120028 | 49 | 319 | 0.0 | 0.0 | 0.00 | 0.00 | 0.00 | 92 | 1017.6 |
| 20260505114522 | 48 | 319 | 0.0 | 0.0 | 0.00 | 0.00 | 0.00 | 92 | 1017.5 |
| 20260505113018 | 47 | 319 | 0.0 | 0.0 | 0.00 | 0.00 | 0.00 | 91 | 1017.5 |
| 20260505111518 | 47 | 22 | 0.0 | 0.0 | 0.00 | 0.00 | 0.00 | 91 | 1017.4 |
| 20260505101509 | 48 | 244 | 0.0 | 0.0 | 0.00 | 0.00 | 0.00 | 90 | 1016.9 |